FENGYUN 1C DEB, 29843

Orbit data source: Space-Track

FENGYUN 1C DEB, 29843 is space debris in SSO originally from a launch on Mon, 10 May 1999 UTC launched from the Taiyaun Space Center, China (TSC). Fengyun 1C debris stems from the Chinese weather satellite Fengyun-1C, which was intentionally destroyed by a Chinese anti-satellite missile in 2007. This event dramatically increased the amount of space debris, with thousands of trackable fragments posing hazards to satellites and human spaceflight. The Fengyun 1C debris cloud has become a focal point in discussions about space sustainability and the need for international regulations to prevent the creation of new debris.

Loading next visibility...
Identifier
29843, 1999-025EM
Orbit
SSO
Country
Flag of CNCN / PRC
Related business
Manufacturer
Unknown
Mission
Spacecraft
Bus & Motor
Unknown
Mass
Unknown
Launch date (UTC)
1999-05-10 (27 years ago)
Launch vehicle
Unknown
Launch site
Taiyaun Space Center, China (TSC)
Object type
Payload
Rocket body
Debris
Shape & HBR
Unknown shape, 0.2 m
Radar Cross Section
Medium (>0.1 m² and <1 m²)

Expand to show TLE details & history
Last TLE update: 1 day ago

TLE from 1 day ago
0 FENGYUN 1C DEB
1 29843U 99025EM  26206.38201925  .00000575  00000-0  20395-3 0  9996
2 29843  99.0218  57.7804 0192057   0.2479 177.5454 14.28907463 14792
Epoch: 2026-07-25T09:10Z
TLE epoch observation values (Epoch: 2026-07-25T09:10:06.463Z)
Latitude
1.98523°
Longitude
157.47206°
Altitude
935.745 km
Speed
7.313 km/s
True Right ascension
15h 52m 22s
True Declination
1° 58' 25"
Sunlit
Object was in daylight at epoch
Visualization orbit readout
Latitude
Unknown
Longitude
Unknown
Altitude
Unknown
Speed
Unknown
Apparent Right ascension
Unknown
Apparent Declination
Unknown
Sunlit
N/A
Visualization observer readout
Local Sidereal Time
00:11:29
Azimuth
Unknown
Elevation
Unknown
Doppler factor
Unknown
Orbital elements
Apogee altitude
930.263 km
Perigee altitude
654.827 km
Semi-major axis
7,170.682 km
Eccentricity
0.01921
Inclination
99.0218°
RAAN
57.7804°
Arg. of periapsis
0.2479°
True anomaly
177.63745°
Mean anomaly
177.5454°
Eccentric anomaly
177.59164°
Mean motion
3.57439 °/min
Orbital period
100.72 mins
BSTAR
0.00020395
Loading maneuver chart data...
Computing Atmospheric mass density...

Documentation

Showing up to 5 results
|